• In Österreich
  • Länderverzeichnis
  • Für 7 Tage
  • Wassertemperatur
  • Satellitenkarten
  • Wetterkarte
  • News
  • Widgets
  • user-avatar
    Anmelden

    Stündliche Wetter Klagenfurt

    Heute, 13 Dezember, Mittwoch

    Zeit Temperatur Niederschläge Wind Luftdruck Luftfeuchtigkeit
    00:00 +4°C° 0,4 mm 1 m/S 688 mmHg 94%
    01:00 +4°C° 0,4 mm 1 m/S 688 mmHg 94%
    02:00 +3°C° 0,8 mm 1 m/S 688 mmHg 94%
    03:00 +3°C° 0,8 mm 1 m/S 689 mmHg 93%
    04:00 +2°C° 0,8 mm 1 m/S 689 mmHg 93%
    05:00 +2°C° 0,8 mm 1 m/S 689 mmHg 93%
    06:00 +1°C° 0,8 mm 1 m/S 689 mmHg 92%
    07:00 +1°C° 0,8 mm 1 m/S 689 mmHg 92%
    08:00 +1°C° 0,6 mm 1 m/S 689 mmHg 91%
    09:00 +1°C° 0,6 mm 1 m/S 690 mmHg 90%
    10:00 +1°C° 0,6 mm 1 m/S 690 mmHg 89%
    11:00 +1°C° 0,3 mm 1 m/S 689 mmHg 88%
    12:00 +1°C° 0,3 mm 1 m/S 689 mmHg 88%
    13:00 +2°C° 0,3 mm 1 m/S 689 mmHg 87%
    14:00 +1°C° 0,1 mm 1 m/S 688 mmHg 88%
    15:00 +1°C° 0,1 mm 1 m/S 688 mmHg 90%
    16:00 +1°C° 0,1 mm 1 m/S 687 mmHg 92%
    17:00 0°C° 0 mm 1 m/S 687 mmHg 93%
    18:00 0°C° 0 mm 1 m/S 687 mmHg 93%
    19:00 0°C° 0 mm 1 m/S 687 mmHg 94%
    20:00 0°C° 0 mm 1 m/S 686 mmHg 94%
    21:00 0°C° 0 mm 1 m/S 686 mmHg 94%
    22:00 0°C° 0 mm 1 m/S 685 mmHg 95%
    23:00 0°C° 0 mm 1 m/S 685 mmHg 95%

    Morgen, 14 Dezember, Donnerstag

    Zeit Temperatur Niederschläge Wind Luftdruck Luftfeuchtigkeit
    00:00 0°C° 0 mm 1 m/S 684 mmHg 95%
    01:00 -2°C° 0 mm 2 m/S 684 mmHg 95%
    02:00 -2°C° 0 mm 2 m/S 683 mmHg 94%
    03:00 -1°C° 0 mm 2 m/S 683 mmHg 93%
    04:00 -1°C° 0 mm 2 m/S 682 mmHg 92%
    05:00 -1°C° 0 mm 2 m/S 682 mmHg 92%
    06:00 -1°C° 0 mm 2 m/S 682 mmHg 92%
    07:00 -1°C° 0 mm 2 m/S 682 mmHg 92%
    08:00 -1°C° 0 mm 2 m/S 682 mmHg 91%
    09:00 +1°C° 0 mm 2 m/S 682 mmHg 90%
    10:00 +2°C° 0 mm 2 m/S 682 mmHg 89%
    11:00 +2°C° 0 mm 2 m/S 682 mmHg 89%
    12:00 +3°C° 0 mm 2 m/S 682 mmHg 88%
    13:00 +4°C° 0 mm 2 m/S 682 mmHg 87%
    14:00 +3°C° 0 mm 2 m/S 682 mmHg 89%
    15:00 +4°C° 0 mm 1 m/S 682 mmHg 91%
    16:00 +3°C° 0 mm 1 m/S 682 mmHg 93%
    17:00 +3°C° 0 mm 1 m/S 681 mmHg 93%
    18:00 +3°C° 0 mm 1 m/S 681 mmHg 94%
    19:00 +3°C° 0 mm 1 m/S 681 mmHg 94%
    20:00 +3°C° 0 mm 1 m/S 681 mmHg 94%
    21:00 +3°C° 0 mm 1 m/S 680 mmHg 94%
    22:00 +2°C° 0 mm 2 m/S 680 mmHg 94%
    23:00 +2°C° 0,1 mm 2 m/S 679 mmHg 94%

    übermorgen, 15 Dezember, Freitag

    Zeit Temperatur Niederschläge Wind Luftdruck Luftfeuchtigkeit
    00:00 +2°C° 0,1 mm 2 m/S 679 mmHg 94%
    01:00 +3°C° 0,1 mm 2 m/S 678 mmHg 94%
    02:00 +3°C° 0,2 mm 2 m/S 678 mmHg 94%
    03:00 +3°C° 0,2 mm 2 m/S 677 mmHg 94%
    04:00 +3°C° 0,2 mm 2 m/S 676 mmHg 94%
    05:00 +4°C° 0,6 mm 2 m/S 676 mmHg 94%
    06:00 +4°C° 0,6 mm 2 m/S 676 mmHg 94%
    07:00 +4°C° 0,6 mm 2 m/S 676 mmHg 94%
    08:00 +4°C° 0,9 mm 2 m/S 677 mmHg 94%
    09:00 +4°C° 0,9 mm 2 m/S 677 mmHg 93%
    10:00 +4°C° 0,9 mm 2 m/S 677 mmHg 92%
    11:00 +4°C° 0,8 mm 2 m/S 678 mmHg 90%
    12:00 +4°C° 0,8 mm 2 m/S 678 mmHg 89%
    13:00 +3°C° 0,8 mm 2 m/S 678 mmHg 87%
    14:00 +3°C° 0,6 mm 2 m/S 678 mmHg 88%
    15:00 +3°C° 0,6 mm 1 m/S 678 mmHg 89%
    16:00 +2°C° 0,6 mm 1 m/S 678 mmHg 90%
    17:00 +2°C° 1 mm 1 m/S 679 mmHg 91%
    18:00 +1°C° 1 mm 1 m/S 679 mmHg 92%
    19:00 +1°C° 1 mm 1 m/S 679 mmHg 93%
    20:00 0°C° 1,6 mm 1 m/S 680 mmHg 93%
    21:00 0°C° 1,6 mm 1 m/S 680 mmHg 93%
    22:00 0°C° 1,6 mm 1 m/S 680 mmHg 93%
    23:00 0°C° 0,7 mm 1 m/S 680 mmHg 93%

    16 Dezember, Samstag

    Zeit Temperatur Niederschläge Wind Luftdruck Luftfeuchtigkeit
    00:00 0°C° 0,7 mm 1 m/S 680 mmHg 93%
    01:00 -1°C° 0,7 mm 1 m/S 681 mmHg 93%
    02:00 -1°C° 0,1 mm 1 m/S 681 mmHg 93%
    03:00 -1°C° 0,1 mm 1 m/S 681 mmHg 93%
    04:00 -1°C° 0,1 mm 1 m/S 681 mmHg 93%
    05:00 -2°C° 0 mm 1 m/S 681 mmHg 92%
    06:00 -3°C° 0 mm 1 m/S 681 mmHg 92%
    07:00 -3°C° 0 mm 1 m/S 681 mmHg 91%
    08:00 -2°C° 0 mm 1 m/S 682 mmHg 89%
    09:00 -1°C° 0 mm 1 m/S 683 mmHg 87%
    10:00 0°C° 0 mm 1 m/S 683 mmHg 85%
    11:00 +1°C° 0 mm 1 m/S 683 mmHg 82%
    12:00 +2°C° 0 mm 1 m/S 683 mmHg 80%
    13:00 +3°C° 0 mm 1 m/S 684 mmHg 77%
    14:00 +1°C° 0 mm 1 m/S 684 mmHg 79%
    15:00 0°C° 0 mm 1 m/S 684 mmHg 81%
    16:00 -1°C° 0 mm 1 m/S 684 mmHg 83%
    17:00 -2°C° 0 mm 1 m/S 684 mmHg 84%
    18:00 -2°C° 0 mm 1 m/S 685 mmHg 84%
    19:00 -3°C° 0 mm 1 m/S 685 mmHg 85%
    20:00 -4°C° 0 mm 1 m/S 686 mmHg 85%
    21:00 -4°C° 0 mm 1 m/S 686 mmHg 85%
    22:00 -4°C° 0 mm 1 m/S 686 mmHg 85%
    23:00 -4°C° 0 mm 1 m/S 686 mmHg 84%

    17 Dezember, Sonntag

    Zeit Temperatur Niederschläge Wind Luftdruck Luftfeuchtigkeit
    00:00 -4°C° 0 mm 1 m/S 687 mmHg 84%
    01:00 -4°C° 0 mm 1 m/S 687 mmHg 84%
    02:00 -6°C° 0 mm 1 m/S 687 mmHg 84%
    03:00 -6°C° 0 mm 1 m/S 687 mmHg 84%
    04:00 -6°C° 0 mm 1 m/S 687 mmHg 84%
    05:00 -6°C° 0 mm 1 m/S 688 mmHg 84%
    06:00 -6°C° 0 mm 1 m/S 688 mmHg 84%
    07:00 -6°C° 0 mm 1 m/S 689 mmHg 84%
    08:00 -4°C° 0 mm 1 m/S 689 mmHg 82%
    09:00 -3°C° 0 mm 1 m/S 690 mmHg 79%
    10:00 -1°C° 0 mm 1 m/S 691 mmHg 77%
    11:00 -1°C° 0 mm 1 m/S 691 mmHg 74%
    12:00 0°C° 0 mm 1 m/S 691 mmHg 71%
    13:00 +1°C° 0 mm 1 m/S 691 mmHg 67%
    14:00 0°C° 0 mm 1 m/S 691 mmHg 71%
    15:00 -1°C° 0 mm 1 m/S 691 mmHg 75%
    16:00 -2°C° 0 mm 1 m/S 692 mmHg 78%
    17:00 -3°C° 0 mm 1 m/S 692 mmHg 79%
    18:00 -3°C° 0 mm 1 m/S 692 mmHg 80%
    19:00 -4°C° 0 mm 1 m/S 693 mmHg 81%
    20:00 -4°C° 0 mm 1 m/S 693 mmHg 81%
    21:00 -6°C° 0 mm 1 m/S 694 mmHg 81%
    22:00 -6°C° 0 mm 1 m/S 694 mmHg 81%
    23:00 -6°C° 0 mm 1 m/S 694 mmHg 81%

    18 Dezember, Montag

    Zeit Temperatur Niederschläge Wind Luftdruck Luftfeuchtigkeit
    00:00 -6°C° 0 mm 1 m/S 695 mmHg 81%
    01:00 -7°C° 0 mm 1 m/S 695 mmHg 81%
    02:00 -7°C° 0 mm 1 m/S 695 mmHg 81%
    03:00 -7°C° 0 mm 1 m/S 695 mmHg 81%
    04:00 -7°C° 0 mm 1 m/S 695 mmHg 81%
    05:00 -7°C° 0 mm 1 m/S 695 mmHg 81%
    06:00 -7°C° 0 mm 1 m/S 695 mmHg 81%
    07:00 -8°C° 0 mm 1 m/S 696 mmHg 81%
    08:00 -6°C° 0 mm 1 m/S 696 mmHg 78%
    09:00 -4°C° 0 mm 1 m/S 697 mmHg 76%
    10:00 -3°C° 0 mm 1 m/S 697 mmHg 74%
    11:00 -2°C° 0 mm 1 m/S 697 mmHg 70%
    12:00 -1°C° 0 mm 1 m/S 696 mmHg 66%
    13:00 0°C° 0 mm 1 m/S 696 mmHg 62%
    14:00 -1°C° 0 mm 1 m/S 696 mmHg 66%
    15:00 -2°C° 0 mm 1 m/S 695 mmHg 70%
    16:00 -3°C° 0 mm 1 m/S 695 mmHg 74%
    17:00 -4°C° 0 mm 1 m/S 695 mmHg 75%
    18:00 -6°C° 0 mm 1 m/S 695 mmHg 77%
    19:00 -7°C° 0 mm 1 m/S 695 mmHg 78%
    20:00 -7°C° 0 mm 1 m/S 695 mmHg 78%
    21:00 -7°C° 0 mm 1 m/S 695 mmHg 78%
    22:00 -7°C° 0 mm 1 m/S 695 mmHg 78%
    23:00 -7°C° 0 mm 1 m/S 695 mmHg 78%
    Mehr zeigen